Location: *
(50.3194°N, 7.1067°E)
Time: 20:57:10
(UTC+00:00)

CZ-2C R/B - Pass Details

Date: 22 September 2019
Orbit: 785 x 870 km, 98.3° (Epoch: 14 October)

Event Time Altitude Azimuth Distance (km) Brightness Sun altitude
Rises 19:15:25 0° 25° (NNE) 3,446 5.9 -17.2°
Reaches altitude 10° 19:18:27 10° 42° (NE) 2,513 5.0 -17.6°
Enters shadow 19:21:04 19° 68° (ENE) 1,977 4.2 -18.0°
